Вернуться в каталог

KUIPER-00250

АктивенСвязьLEO
NORAD 67155·PAYLOAD·🇺🇸 United States

Запущен Dec 15, 2025 с Cape Canaveral Space Force Station

Loading…

Ближайшие Пролёты (ближайшие 24 часа)

TLE

СвежийSource: CelesTrak SupGP

Эпоха: Sep 14, 2026, 20:29 UTC

1 67155C 25301Y   26257.85365741  .00000658  00000+0  86181-4 0  2579
2 67155  51.8989 314.1075 0000667  61.2214  20.0036 14.79930197    14

Отслеживайте KUIPER-00250 в реальном времени с AllMySat

Download on the App Store